Weather History for KCRP - January, 2012

Change the Weather History Date:

Tuesday, January 24, 2012

  Actual Average Record
Temperature  
Mean Temperature 72 °F 57 °F  
Max Temperature 79 °F 67 °F 87 °F (1972)
Min Temperature 65 °F 48 °F 18 °F (1963)
Degree Days  
Heating Degree Days 0 8  
Month to date heating degree days 119 215  
Since 1 July heating degree days 432 566  
Cooling Degree Days 7 1  
Month to date cooling degree days 57 24  
Year to date cooling degree days 57 24  
Growing Degree Days 22 (Base 50)    
Moisture  
Dew Point 68 °F    
Average Humidity 80    
Maximum Humidity 93    
Minimum Humidity 67    
Precipitation  
Precipitation T in 0.05 in 1.36 in (2007)
Month to date precipitation 0.01 1.20  
Year to date precipitation 0.01 1.20  
Snow  
Snow 0.00 in - - ()
Month to date snowfall 0.0  
Since 1 July snowfall 0.0  
Snow Depth 0.00 in    
Sea Level Pressure  
Sea Level Pressure 29.86 in    
Wind  
Wind Speed 18 mph (SE)    
Max Wind Speed 35 mph    
Max Gust Speed 41 mph    
Visibility 7 miles    
Events Rain    
T = Trace of Precipitation, MM = Missing Value Source: NWS Daily Summary

Daily Weather History Graph

Daily Weather History Graph

Search for Another Location

Airport or City:

Trip Planner

Search our weather history database for the weather conditions in past years. The results will help you decide how hot, cold, wet, or windy it might be!

Date:

Astronomy

Jan. 24, 2012 Rise Set
Actual Time 7:20 AM CST 6:04 PM CST
Civil Twilight 6:55 AM CST 6:28 PM CST
Nautical Twilight 6:27 AM CST 6:57 PM CST
Astronomical Twilight 5:59 AM CST 7:25 PM CST
Moon 8:01 AM CST (1/24) 7:42 PM CST (1/24)
Length of Visible Light 11h 33m
Length of Day
10h 43m
New Moon, 2% of the Moon is Illuminated
Jan 24
New Moon
Jan 30
First Quarter
Feb 7
Full
Feb 14
Last Quarter
Feb 21
New

Hourly Weather History & Observations

Time (CST) Temp. Dew Point Humidity Pressure Visibility Wind Dir Wind Speed Gust Speed Precip Events Conditions
12:51 AM 64.9 °F 60.1 °F 84% 29.96 in 9.0 mi East 9.2 mph - N/A   Overcast
1:51 AM 66.0 °F 62.1 °F 87% 29.95 in 7.0 mi East 9.2 mph - N/A   Overcast
2:51 AM 66.0 °F 63.0 °F 90% 29.95 in 4.0 mi East 8.1 mph - N/A   Overcast
3:04 AM 66.2 °F 64.4 °F 94% 29.94 in 1.8 mi East 8.1 mph - 0.00 in Rain Light Rain
3:20 AM 66.2 °F 64.4 °F 94% 29.94 in 2.5 mi East 6.9 mph - 0.00 in   Overcast
3:35 AM 66.2 °F 64.4 °F 94% 29.94 in 1.0 mi East 9.2 mph - 0.00 in   Overcast
3:48 AM 66.2 °F 64.4 °F 94% 29.94 in 0.8 mi East 9.2 mph - 0.00 in Rain Light Rain
3:51 AM 66.0 °F 64.9 °F 96% 29.94 in 0.8 mi East 9.2 mph - 0.00 in Rain Light Rain
4:51 AM 66.9 °F 66.0 °F 97% 29.92 in 1.0 mi East 8.1 mph - N/A   Overcast
5:47 AM 68.0 °F 66.2 °F 94% 29.92 in 2.0 mi East 10.4 mph - N/A   Overcast
5:51 AM 68.0 °F 66.0 °F 93% 29.91 in 2.5 mi East 9.2 mph - N/A   Overcast
6:11 AM 68.0 °F 66.2 °F 94% 29.92 in 3.0 mi East 10.4 mph - N/A   Overcast
6:51 AM 69.1 °F 66.9 °F 93% 29.92 in 3.0 mi East 10.4 mph - N/A   Overcast
7:19 AM 69.8 °F 66.2 °F 88% 29.92 in 2.5 mi East 11.5 mph - N/A   Overcast
7:51 AM 69.1 °F 66.9 °F 93% 29.92 in 2.5 mi East 11.5 mph - N/A   Overcast
8:51 AM 71.1 °F 69.1 °F 93% 29.93 in 3.0 mi SE 10.4 mph - 0.00 in   Overcast
9:51 AM 73.9 °F 70.0 °F 87% 29.93 in 6.0 mi SE 15.0 mph - N/A   Overcast
10:37 AM 75.2 °F 69.8 °F 83% 29.94 in 6.0 mi SE 18.4 mph - N/A   Haze
10:51 AM 75.0 °F 69.1 °F 82% 29.94 in 6.0 mi SSE 19.6 mph - N/A   Haze
10:58 AM 75.2 °F 69.8 °F 83% 29.94 in 6.0 mi SSE 21.9 mph 27.6 mph N/A   Haze
11:22 AM 75.2 °F 69.8 °F 83% 29.93 in 6.0 mi SSE 21.9 mph 28.8 mph 0.00 in   Haze
11:51 AM 75.9 °F 69.1 °F 79% 29.91 in 6.0 mi SSE 25.3 mph 32.2 mph 0.00 in   Haze
12:05 PM 75.2 °F 69.8 °F 83% 29.90 in 10.0 mi SSE 19.6 mph 32.2 mph 0.00 in Rain Light Rain
12:13 PM 77.0 °F 69.8 °F 78% 29.89 in 10.0 mi SE 21.9 mph 29.9 mph 0.00 in   Mostly Cloudy
12:51 PM 79.0 °F 68.0 °F 69% 29.86 in 10.0 mi SSE 27.6 mph 38.0 mph 0.00 in   Mostly Cloudy
1:51 PM 78.1 °F 66.9 °F 68% 29.83 in 10.0 mi SSE 27.6 mph 35.7 mph N/A   Mostly Cloudy
2:51 PM 78.1 °F 68.0 °F 71% 29.79 in 10.0 mi SSE 28.8 mph 40.3 mph N/A   Mostly Cloudy
3:51 PM 78.1 °F 68.0 °F 71% 29.78 in 10.0 mi SE 26.5 mph 35.7 mph N/A   Scattered Clouds
4:07 PM 77.0 °F 68.0 °F 74% 29.78 in 10.0 mi SE 28.8 mph - N/A   Mostly Cloudy
4:28 PM 77.0 °F 68.0 °F 74% 29.79 in 10.0 mi SE 25.3 mph 35.7 mph N/A   Mostly Cloudy
4:51 PM 75.9 °F 68.0 °F 76% 29.78 in 10.0 mi SE 26.5 mph 33.4 mph N/A   Mostly Cloudy
5:16 PM 73.4 °F 68.0 °F 83% 29.78 in 10.0 mi SE 23.0 mph - 0.00 in Rain Light Rain
5:51 PM 73.9 °F 68.0 °F 82% 29.78 in 10.0 mi SE 25.3 mph 32.2 mph 0.00 in   Scattered Clouds
6:51 PM 73.9 °F 69.1 °F 85% 29.79 in 10.0 mi SE 23.0 mph - N/A   Scattered Clouds
7:40 PM 73.4 °F 69.8 °F 88% 29.79 in 10.0 mi SE 19.6 mph - N/A   Partly Cloudy
7:51 PM 73.0 °F 69.1 °F 87% 29.78 in 10.0 mi SE 23.0 mph - N/A   Scattered Clouds
8:29 PM 73.4 °F 69.8 °F 88% 29.79 in 10.0 mi SE 18.4 mph 23.0 mph N/A   Mostly Cloudy
8:44 PM 73.4 °F 69.8 °F 88% 29.79 in 10.0 mi SE 17.3 mph - N/A   Overcast
8:51 PM 73.0 °F 69.1 °F 87% 29.79 in 10.0 mi SE 15.0 mph 25.3 mph N/A   Overcast
9:51 PM 73.9 °F 70.0 °F 87% 29.80 in 10.0 mi SE 21.9 mph 28.8 mph N/A   Mostly Cloudy
10:41 PM 73.4 °F 69.8 °F 88% 29.79 in 10.0 mi SE 21.9 mph - 0.00 in   Mostly Cloudy
10:51 PM 73.0 °F 69.1 °F 87% 29.79 in 10.0 mi SE 19.6 mph - 0.00 in   Mostly Cloudy
11:16 PM 73.4 °F 69.8 °F 88% 29.79 in 10.0 mi SE 19.6 mph - N/A   Overcast
11:43 PM 73.4 °F 69.8 °F 88% 29.78 in 10.0 mi SE 17.3 mph - 0.00 in Rain Light Rain
11:51 PM 73.0 °F 69.1 °F 87% 29.77 in 10.0 mi SE 18.4 mph - 0.00 in Rain Light Rain
11:58 PM 73.4 °F 69.8 °F 88% 29.77 in 10.0 mi SE 19.6 mph - 0.00 in   Mostly Cloudy